Theta_e
294 287 284 283 283 283 283 282 282 282 283 284 284 284 283 283 282 283 284 285 284 284 282 283 283 283 284 284 285 286 288 288 288 287 288 288 288 289 289 289 290 290 290 293 294 294 294 294 293 294 295 295 295 295 295 295 295 295 294 295 295 296 296 295 295 295 295 294 294 294 294 293 294 294 295 295 295 295 295 295 295 294 294 294 293 293
297 286 283 283 283 283 282 282 282 283 284 284 284 284 283 284 282 282 283 285 285 284 282 283 284 283 284 285 285 287 287 286 287 287 287 287 288 289 289 289 290 290 293 293 292 292 293 294 294 295 295 295 293 294 294 294 294 295 295 295 295 295 295 295 294 295 295 295 294 293 293 293 293 293 293 293 294 294 295 295 294 294 294 293 293 292
286 283 284 284 284 283 282 282 283 284 283 283 284 284 284 282 283 283 284 285 285 285 282 283 283 283 283 284 285 286 286 287 287 287 286 287 288 288 289 289 289 290 290 291 291 292 292 293 294 294 294 294 294 294 294 295 294 294 294 295 295 295 295 295 295 295 294 294 295 294 294 293 293 295 295 294 295 295 294 293 293 293 292 292 291 291
285 285 285 284 283 283 284 284 284 284 286 285 285 284 283 282 282 282 283 284 285 284 283 283 283 282 283 284 285 285 286 286 286 286 287 288 287 287 288 288 288 289 290 290 290 291 292 292 293 293 293 294 294 294 294 294 293 293 294 294 294 294 295 295 295 295 295 295 295 296 295 295 295 294 295 295 294 293 292 291 292 292 291 291 290 290
283 284 285 284 284 284 284 284 284 285 285 284 284 284 283 282 282 282 283 283 284 285 285 283 283 282 283 283 283 285 286 285 286 287 287 288 289 289 290 291 290 288 289 289 290 291 291 291 291 292 293 294 294 294 294 293 292 292 293 294 294 294 294 294 294 294 294 295 294 294 294 294 293 294 293 291 290 290 290 290 290 289 290 290 289 289
283 284 284 283 284 284 285 284 282 283 285 283 281 282 281 281 282 282 282 283 283 282 283 282 280 281 282 282 283 284 285 285 285 286 286 287 288 288 288 288 290 291 291 290 289 290 291 291 292 293 293 293 293 293 293 293 292 292 293 293 294 294 294 294 294 293 294 293 292 292 290 289 289 288 288 287 287 287 287 287 288 289 288 288 287 287
284 285 284 283 284 284 284 282 282 283 285 284 281 282 282 281 281 281 282 282 282 280 281 283 279 278 282 281 282 283 283 283 285 285 286 286 287 288 288 288 289 289 289 291 291 291 291 291 291 292 292 293 292 293 293 292 292 293 293 293 293 294 294 294 293 294 293 292 292 291 290 289 288 287 288 288 288 287 287 288 287 287 287 287 286 285
287 286 285 284 284 285 285 284 282 282 283 283 281 282 282 281 281 282 283 283 282 282 282 281 282 279 280 282 283 282 282 283 284 285 286 286 287 287 288 288 289 289 290 290 290 291 291 291 291 291 292 292 292 292 292 292 292 292 292 292 293 294 293 293 293 293 293 291 291 290 289 289 288 287 286 286 286 287 287 286 285 285 285 285 285 284
284 283 283 283 285 285 282 282 283 283 282 282 282 282 282 282 282 282 283 283 282 281 282 282 282 279 280 281 281 282 280 282 283 284 285 286 287 287 288 289 289 289 290 289 289 290 290 291 291 291 291 291 291 292 291 291 292 292 292 293 293 293 293 293 293 292 292 291 290 289 289 287 287 287 286 286 286 285 285 284 284 283 283 283 283 283
284 284 283 283 284 282 283 283 284 282 283 282 283 284 283 283 283 283 284 283 281 280 279 279 280 278 280 281 281 281 281 281 284 285 285 286 287 288 288 289 289 290 290 291 291 291 291 291 291 292 291 291 292 292 292 292 292 292 292 292 292 292 292 292 292 291 291 290 289 288 287 286 285 285 285 285 284 283 283 282 282 282 282 282 282 283
284 286 287 284 283 283 284 284 282 284 282 284 284 284 283 283 283 282 283 283 282 278 279 278 279 278 276 281 283 281 282 284 285 285 286 286 287 288 288 289 289 289 290 290 290 291 292 292 292 292 291 292 292 293 292 292 292 292 292 292 291 292 292 291 291 290 290 290 289 288 287 285 284 284 283 282 282 282 281 280 281 281 281 281 281 282
285 286 285 285 285 285 284 283 283 283 284 284 284 283 282 281 282 282 281 282 277 277 278 278 277 278 275 280 283 285 284 284 285 284 285 286 286 287 288 289 289 289 289 290 290 290 291 291 292 292 291 291 291 292 292 292 292 292 292 291 290 291 291 291 291 290 289 289 288 287 286 284 283 283 282 281 281 280 280 280 279 280 280 280 281 281
284 283 284 285 285 284 283 284 284 283 285 284 282 283 280 280 280 278 280 277 277 276 278 277 278 277 278 282 284 284 285 285 285 286 286 286 287 288 288 289 290 290 290 289 290 289 290 290 290 290 290 291 291 291 291 291 291 291 291 291 290 290 291 290 290 289 288 288 287 286 284 284 283 282 281 281 280 280 279 279 279 279 278 279 279 280
283 283 285 285 284 286 285 284 284 284 285 283 282 281 280 277 275 273 276 275 277 279 277 277 277 276 282 283 285 284 285 286 286 286 287 286 286 287 288 289 289 290 290 289 289 289 289 290 290 290 290 290 290 290 291 291 290 290 290 290 290 290 290 290 289 288 287 286 286 285 284 282 282 281 281 280 280 279 279 279 278 278 278 278 278 279
282 282 283 283 282 285 284 282 281 281 282 282 281 281 281 279 275 271 274 274 275 276 278 275 275 277 277 281 283 284 284 284 284 284 285 285 286 286 287 287 287 288 289 290 289 289 289 290 290 290 290 290 290 290 290 290 290 290 290 290 289 289 289 288 288 287 286 285 284 283 283 282 281 280 280 280 280 279 279 279 278 278 278 278 278 278
278 281 282 284 283 284 282 282 282 281 281 282 282 283 282 278 281 277 274 275 273 274 276 276 277 280 281 283 284 284 285 285 285 285 285 285 286 286 286 287 289 289 289 289 289 289 290 290 290 290 290 290 290 290 290 290 290 290 289 289 289 289 288 288 287 286 285 284 283 282 281 281 280 280 280 279 279 279 279 278 278 278 278 278 278 279
281 281 282 283 283 283 282 283 282 282 280 282 283 280 279 281 279 274 270 268 268 272 275 278 279 282 284 282 284 283 284 285 285 285 285 286 287 286 286 288 289 289 289 289 289 289 289 289 289 290 290 289 289 289 289 289 289 289 288 288 288 288 287 286 285 284 283 282 282 281 280 280 279 279 278 278 278 278 278 278 278 278 278 278 278 278
280 282 281 282 281 282 282 282 282 282 282 283 281 280 279 278 277 277 275 272 274 272 275 274 276 279 279 277 283 283 283 284 285 285 285 286 286 286 288 289 289 289 289 289 290 290 290 290 290 290 290 290 289 289 289 289 289 289 288 288 287 286 285 285 284 283 282 281 280 280 279 279 279 278 278 278 278 278 278 278 278 278 277 277 277 277
280 281 281 280 280 282 282 283 283 285 284 283 281 283 279 277 277 278 275 271 272 271 273 275 274 276 279 280 282 282 283 284 285 285 285 286 287 287 288 288 289 289 289 289 289 289 289 290 290 290 289 290 289 289 289 289 289 289 288 288 287 285 285 284 283 282 281 281 280 279 279 279 278 278 278 278 278 278 277 277 277 276 276 276 276 276
281 280 281 279 281 281 282 283 280 282 284 282 284 282 281 281 278 277 276 276 276 273 272 274 273 277 280 282 283 283 284 285 285 285 285 286 287 287 287 287 288 288 288 288 288 289 289 289 289 289 289 289 288 288 289 289 289 288 288 287 286 285 284 283 281 280 280 280 279 279 279 278 278 278 277 277 277 277 276 276 276 276 275 275 276 275
281 279 280 281 279 279 281 280 280 280 280 282 282 281 280 279 279 278 275 275 275 272 272 271 272 280 283 284 284 285 285 285 285 285 286 286 287 287 287 288 288 288 288 288 289 289 289 289 289 289 289 289 289 289 289 289 288 287 287 286 285 283 282 281 280 279 279 279 278 278 277 277 277 277 277 277 277 276 276 275 275 275 275 275 274 275
280 280 279 281 282 281 279 279 278 278 278 279 280 280 280 279 278 275 274 272 270 274 270 270 273 280 284 283 284 285 284 283 284 284 284 286 286 287 287 288 288 287 288 288 288 288 288 288 289 289 289 289 288 288 288 288 287 287 286 284 283 282 281 279 279 278 278 278 278 277 277 277 277 277 277 276 276 275 275 275 274 274 274 274 274 274
280 280 279 280 280 279 278 278 277 277 275 276 278 280 279 278 278 278 273 273 272 271 270 272 270 278 283 283 283 284 284 284 284 283 283 285 286 286 287 288 288 288 288 288 288 288 288 288 288 288 287 287 287 287 287 287 287 286 284 283 282 280 279 279 278 278 278 277 277 277 277 276 276 276 276 275 275 274 274 274 274 274 273 273 273 274
282 279 279 280 275 277 277 277 275 275 277 275 275 275 278 279 278 278 278 277 276 270 271 272 270 278 283 283 283 283 284 284 284 283 284 285 286 286 287 287 287 287 288 288 289 288 289 288 288 287 288 288 288 287 287 287 286 285 283 281 280 279 278 278 278 278 277 277 276 276 276 276 276 275 275 274 274 273 273 273 273 273 273 273 273 272
279 279 279 279 280 278 277 276 276 275 276 278 280 278 276 276 275 270 271 272 274 272 275 274 272 280 283 283 284 283 284 284 285 285 285 284 286 286 286 287 287 287 288 288 288 288 288 288 288 287 287 287 287 287 286 286 285 283 281 280 278 278 278 278 278 277 276 276 275 275 275 275 275 274 274 273 273 273 273 272 272 272 272 272 272 272
281 280 279 278 275 274 275 276 279 279 279 279 277 276 275 277 273 274 275 274 273 272 271 272 276 283 284 283 284 285 285 285 286 287 287 286 286 286 287 287 287 287 287 288 287 288 287 287 287 287 287 287 287 286 285 284 283 281 280 279 278 277 277 277 277 276 276 275 275 275 274 274 274 273 273 273 272 272 272 272 272 271 272 271 271 271
277 276 279 279 280 280 281 280 279 280 278 276 276 275 276 276 277 277 277 274 275 272 271 276 278 280 281 284 284 286 286 285 285 286 286 286 287 287 287 287 287 287 287 287 287 287 287 287 287 287 287 287 286 285 284 283 281 279 278 278 277 277 277 276 276 275 275 275 274 274 273 273 273 273 272 272 272 272 272 271 271 271 271 271 270 270
276 278 275 273 275 280 281 277 277 278 276 278 277 277 278 276 276 276 275 276 278 273 274 278 278 276 280 283 284 285 286 286 286 286 286 286 286 286 286 286 286 286 287 287 287 287 287 287 287 287 286 286 285 285 283 281 279 278 277 277 277 277 276 276 275 275 274 274 273 273 272 272 272 272 272 272 271 271 271 271 270 270 270 270 270 270
279 277 273 274 275 279 278 278 277 276 277 278 277 277 277 277 275 274 275 279 277 275 277 277 276 277 280 282 284 285 286 285 285 285 285 285 285 285 285 285 286 286 287 287 287 287 287 286 286 286 286 285 284 283 281 279 278 277 277 277 276 276 275 275 274 274 273 273 272 272 272 272 272 272 271 271 271 270 270 270 270 270 270 270 269 269
279 276 275 275 274 276 278 277 276 275 275 275 276 277 278 277 276 276 277 278 277 278 279 280 280 279 281 283 284 286 287 286 285 285 285 285 285 285 285 285 285 286 286 286 287 287 287 286 286 285 285 285 283 281 279 277 277 276 275 275 275 275 275 274 273 273 272 272 272 272 272 271 271 271 271 270 270 269 269 269 269 269 269 269 269 269
277 277 277 273 273 275 273 272 272 275 275 273 277 278 277 277 277 277 277 278 277 276 277 277 277 277 282 285 285 286 286 285 285 284 285 286 286 285 285 285 286 286 287 287 287 287 286 286 286 285 285 283 281 278 277 276 276 275 275 275 275 274 274 274 272 272 272 271 271 271 271 270 270 270 269 269 269 269 268 268 268 268 268 268 268 268
277 276 272 272 277 278 272 272 273 272 272 271 272 274 275 274 270 274 274 277 276 276 277 276 275 277 284 286 285 285 284 285 285 286 286 286 286 285 285 285 286 286 286 286 286 286 286 286 285 285 284 282 279 277 276 275 275 275 274 274 274 273 273 272 272 271 271 271 270 270 270 269 269 269 269 269 268 268 268 268 268 268 268 267 267 268
277 277 276 277 277 276 275 271 273 271 270 273 276 280 277 276 277 277 278 278 279 280 277 275 279 285 286 285 284 285 286 286 287 287 286 286 286 286 285 285 286 286 286 286 286 286 286 285 285 284 282 280 277 276 275 275 274 274 274 273 273 273 272 271 271 270 270 270 269 269 269 269 268 268 268 268 267 267 267 267 267 267 267 267 267 267
269 276 276 274 275 277 272 273 272 276 277 279 282 282 280 279 276 276 278 278 279 280 281 283 284 285 285 285 285 285 285 286 286 287 286 285 284 285 286 286 287 287 286 287 286 286 285 285 285 283 280 277 276 275 275 275 274 273 274 273 273 272 271 270 270 270 269 269 268 268 268 268 268 267 267 267 267 267 267 267 266 266 267 267 267 267
274 273 274 271 275 277 274 276 279 273 278 282 278 279 279 281 280 280 282 282 281 280 281 281 283 284 285 286 286 286 286 286 286 285 285 286 286 285 285 286 286 286 286 286 286 286 286 285 283 281 278 276 275 275 274 274 273 273 273 272 272 271 270 270 270 269 268 268 268 268 267 267 267 266 266 266 266 266 266 266 266 266 266 266 266 266
275 276 273 273 274 274 275 276 271 279 281 282 280 278 279 279 279 278 279 281 282 281 281 281 283 285 286 286 286 287 286 284 285 286 286 288 288 287 286 287 287 286 286 286 285 285 285 284 281 278 277 275 274 274 273 273 273 272 272 272 271 270 270 269 269 268 268 267 267 267 267 266 266 266 266 266 266 266 266 265 266 265 266 266 266 267
278 275 276 275 271 273 272 273 278 278 280 280 279 279 279 281 279 280 280 284 285 283 282 282 283 284 285 285 286 286 285 285 285 288 289 288 289 288 287 287 287 286 286 286 286 285 284 282 278 276 276 274 273 273 272 272 272 271 271 270 270 269 269 268 268 267 267 267 267 266 266 265 265 265 265 265 265 265 265 265 265 266 266 265 266 266
278 277 279 276 273 273 274 275 275 277 273 282 282 280 282 281 283 283 282 281 285 284 284 284 283 285 285 286 285 284 284 283 283 287 288 288 288 287 287 287 287 286 286 285 285 284 281 279 277 275 275 273 273 272 272 271 271 270 270 269 269 268 268 268 267 267 267 266 266 266 265 265 265 264 264 265 264 264 265 265 265 265 266 265 265 266
277 276 276 277 275 272 272 272 270 270 279 284 282 281 281 281 281 282 280 279 286 284 284 284 284 286 286 286 286 283 283 281 283 287 289 288 288 287 286 287 287 286 285 285 284 283 280 278 276 274 274 273 272 271 271 270 270 269 269 269 268 268 267 267 266 266 266 266 266 265 265 265 264 264 264 264 264 264 264 264 264 265 265 265 266 266
274 274 275 274 269 270 270 270 274 273 278 282 281 281 281 280 281 282 277 280 285 285 285 284 285 286 287 287 285 283 282 281 283 287 288 287 287 287 286 286 286 286 285 283 281 280 278 276 275 274 273 272 271 271 270 269 269 268 268 267 268 267 266 266 266 266 266 265 265 265 265 264 264 264 263 263 264 264 264 264 264 265 265 265 266 265
274 273 272 274 273 271 273 274 273 277 282 281 281 280 280 281 282 277 276 283 287 287 285 284 286 287 287 286 284 283 286 287 288 289 289 288 287 287 287 286 285 285 284 283 280 277 276 275 274 273 271 271 270 270 269 269 268 268 268 267 267 266 266 265 266 265 265 265 264 264 264 264 264 263 263 263 263 263 263 263 264 264 264 264 265 265
270 269 268 268 271 273 273 273 275 277 283 282 280 281 280 281 277 278 287 287 288 287 286 285 286 287 286 286 286 286 287 289 289 288 287 287 286 286 286 285 284 282 281 280 279 277 276 274 273 272 271 270 270 269 268 268 267 267 267 267 266 265 265 265 265 265 264 264 263 263 263 263 263 262 262 263 262 262 262 264 264 264 264 264 264 264
276 273 273 272 271 271 269 270 272 274 281 281 280 280 280 281 285 289 288 286 286 289 288 286 285 287 286 285 287 287 287 287 286 286 286 286 286 285 286 285 284 284 280 278 276 275 275 274 272 271 271 270 269 269 267 267 266 266 266 266 265 265 265 264 264 263 263 263 262 262 262 262 261 261 261 261 262 262 262 263 263 263 263 264 264 264
281 278 274 272 275 275 269 271 277 286 285 282 285 284 281 285 290 288 288 288 289 287 287 288 287 287 287 286 286 286 287 286 286 286 286 286 286 286 285 285 284 284 282 280 278 276 273 273 272 271 270 270 269 268 267 266 265 265 264 265 265 264 264 264 263 262 261 261 261 261 261 261 261 261 261 261 262 262 262 262 262 263 263 264 264 264
282 282 281 280 279 278 277 280 285 282 284 284 287 290 288 288 288 287 287 286 286 288 289 287 287 288 288 286 286 286 285 285 286 286 285 285 286 285 285 285 285 284 281 278 276 274 273 273 272 271 270 269 268 267 266 265 264 262 263 264 263 263 263 262 261 260 259 260 260 260 260 260 260 261 261 261 262 261 262 262 262 262 264 264 265 265
282 282 281 281 281 282 284 284 286 285 283 284 285 287 286 287 287 286 286 286 288 288 289 287 288 288 288 287 285 285 285 286 285 285 285 285 285 285 285 284 281 280 279 277 274 272 272 272 271 270 269 269 267 266 265 264 263 262 263 263 263 262 262 260 259 258 258 259 259 260 259 259 260 261 261 262 262 262 263 263 263 263 264 264 265 266
281 281 281 281 282 281 281 286 284 285 287 286 286 287 287 287 286 287 286 286 287 288 288 288 287 287 287 286 285 285 285 286 285 285 285 285 285 285 285 284 282 279 278 276 274 272 271 271 271 269 268 268 267 266 264 263 263 263 262 261 262 261 260 259 258 257 258 258 259 259 260 260 260 260 261 262 262 263 263 264 264 264 264 265 266 265
281 282 280 281 280 280 283 286 286 286 286 287 287 287 286 287 288 287 287 287 288 288 287 287 287 285 285 284 285 285 285 286 284 285 285 285 285 285 285 284 283 279 278 277 274 272 272 271 271 270 268 268 268 266 264 263 262 262 261 261 261 260 259 258 257 257 258 258 259 260 260 260 259 260 261 262 262 262 263 264 264 264 264 265 265 265
283 282 280 281 280 282 284 285 286 286 287 287 288 288 288 289 289 288 288 287 286 286 286 286 286 286 286 286 287 286 284 285 285 285 285 285 285 285 284 284 282 280 277 275 273 272 272 271 270 269 268 268 267 264 263 262 261 261 260 261 260 259 258 257 257 257 258 259 259 260 260 260 260 261 261 261 263 263 263 263 263 264 265 267 267 266
281 280 283 281 279 280 281 285 287 284 287 290 289 288 289 288 287 287 287 285 285 285 285 285 286 285 285 286 286 285 284 285 286 286 285 285 285 285 285 283 280 278 276 275 273 271 271 270 270 268 267 267 266 264 262 261 261 261 261 260 260 259 257 256 257 258 259 259 259 259 259 260 261 261 261 261 262 263 263 264 265 266 266 267 268 269
282 284 283 281 281 282 287 288 289 289 289 290 291 290 289 288 286 286 286 287 287 287 287 286 286 286 285 285 285 284 285 285 286 286 285 285 285 285 284 283 279 277 275 273 271 270 269 269 267 267 265 266 265 263 261 261 261 260 260 260 260 258 257 256 257 258 259 259 259 258 258 260 260 261 261 261 262 262 262 263 265 267 268 268 268 268
Wind_Speed
4 11 10 6 4 6 5 4 2 1 1 4 4 4 5 6 5 2 2 5 2 2 8 6 5 6 5 4 3 2 1 4 5 6 5 5 5 6 7 7 7 8 7 6 4 4 4 3 3 2 2 3 2 3 4 6 6 5 5 5 6 5 4 4 5 5 5 5 6 6 6 7 8 8 8 8 8 9 9 10 10 10 9 10 11 10
2 14 8 5 5 5 5 2 3 3 1 2 4 3 4 2 4 2 4 5 1 3 4 2 4 5 4 3 4 2 2 5 4 4 5 6 6 5 7 7 7 6 4 6 6 7 6 5 4 3 3 4 7 6 6 6 6 5 5 6 6 5 5 4 5 4 5 4 4 5 6 6 7 8 8 8 8 9 8 9 10 9 10 10 10 10
14 10 5 5 3 2 0 2 1 1 4 1 1 3 3 4 3 2 2 5 3 3 4 1 2 3 3 2 2 3 3 3 2 2 3 4 5 5 5 6 7 7 7 7 7 6 6 6 6 4 4 4 3 5 5 4 6 6 5 5 6 5 5 4 4 4 5 5 4 4 6 6 7 6 7 8 9 8 8 9 10 10 10 11 10 11
11 6 6 4 1 2 3 2 2 4 4 3 2 2 2 2 3 3 3 5 6 4 3 2 2 3 1 2 2 2 1 1 2 3 2 2 3 4 5 5 5 6 6 8 7 7 7 7 7 7 6 6 5 5 6 6 7 5 5 5 5 5 4 4 4 4 5 5 6 6 6 7 6 8 9 9 9 9 10 11 10 9 10 11 11 11
10 4 5 3 2 1 7 5 2 2 3 5 5 3 2 2 2 4 3 2 1 6 3 2 3 3 3 4 4 3 1 2 0 1 3 3 3 3 4 3 2 6 6 7 8 8 8 8 8 8 7 6 6 6 5 6 6 4 6 5 5 4 4 3 4 5 5 5 6 6 8 8 9 9 10 10 9 9 10 10 10 10 11 11 11 11
9 5 1 2 1 1 1 6 8 5 1 2 4 4 2 2 2 1 1 3 4 4 4 2 3 4 5 4 3 2 2 3 1 2 2 0 1 1 3 4 4 3 4 5 7 8 8 8 8 8 9 8 7 7 6 5 6 5 5 5 5 4 4 3 4 4 5 6 6 7 8 9 9 10 10 10 12 11 11 11 11 11 11 11 11 11
4 3 2 1 1 1 5 8 5 5 1 1 4 1 1 1 2 2 2 4 1 2 3 2 4 2 5 5 6 4 3 3 3 4 3 2 2 2 3 4 4 5 5 5 6 7 8 9 9 9 9 9 8 8 7 6 6 5 5 5 5 5 4 3 4 4 5 7 6 8 8 8 9 10 9 10 10 11 10 10 11 11 10 11 11 11
3 6 3 1 2 2 4 8 6 6 3 3 2 1 2 3 3 3 4 2 2 2 3 1 2 5 1 3 3 2 3 5 5 5 5 4 4 4 4 4 5 6 5 5 7 8 9 9 8 9 10 8 8 8 8 7 6 6 6 6 6 5 4 3 4 5 5 6 7 8 9 8 9 10 11 12 11 10 10 11 11 10 10 11 10 11
4 6 9 9 5 4 6 2 5 4 3 3 3 1 0 1 1 3 4 1 2 2 1 3 5 4 2 3 2 2 6 8 9 7 6 4 4 3 4 4 5 6 5 4 6 8 9 9 10 9 9 10 9 7 7 7 6 6 6 6 6 6 5 4 5 6 7 7 7 8 8 9 8 10 10 10 10 10 10 12 11 11 10 10 10 10
1 4 4 3 6 5 4 3 3 4 3 4 2 3 3 2 2 1 2 3 2 2 1 4 7 4 2 4 4 3 5 7 6 6 6 5 5 4 4 5 5 5 5 4 5 7 8 8 8 7 8 8 7 6 6 6 5 5 5 6 7 7 5 5 6 7 8 8 7 8 8 10 10 10 10 10 11 11 10 11 12 10 10 10 10 9
3 1 1 3 7 5 6 3 1 1 2 1 3 1 2 1 1 1 2 1 1 1 2 4 4 4 3 3 2 3 0 2 2 2 4 5 6 6 6 6 6 5 5 5 6 7 8 8 8 6 7 8 8 6 5 4 4 4 5 6 8 6 5 5 6 7 8 7 7 7 9 11 12 13 12 12 12 11 11 11 11 10 10 10 10 9
3 3 1 3 2 4 2 1 1 1 0 4 2 2 2 3 2 2 1 0 1 0 4 3 4 2 3 2 2 2 1 1 3 2 4 5 6 6 5 6 6 6 6 6 6 7 9 10 10 9 9 9 9 9 8 6 5 5 5 6 8 7 5 5 6 7 8 7 8 8 10 11 11 12 11 12 13 12 13 12 11 10 10 10 9 9
5 7 3 1 4 6 4 3 3 2 4 2 2 3 3 1 1 1 1 1 1 3 3 3 5 2 5 2 3 2 3 3 4 3 3 5 6 7 7 8 6 6 6 7 7 8 8 9 9 9 9 9 9 8 8 8 6 6 6 7 7 7 6 6 7 7 9 9 9 9 10 11 10 11 12 12 12 11 11 10 11 11 10 10 9 9
2 1 4 3 2 6 9 3 3 1 6 4 2 3 2 2 2 2 1 2 3 3 2 1 3 3 1 2 2 2 2 2 3 4 5 5 8 8 8 7 7 6 6 6 7 7 8 8 8 8 8 8 8 9 8 7 6 6 6 7 7 8 6 7 8 8 9 10 10 10 10 10 10 11 11 10 10 11 10 10 11 10 10 10 10 10
1 1 5 8 4 8 6 7 4 3 5 4 3 4 3 1 2 2 1 3 3 5 1 2 2 0 6 3 1 2 3 4 3 4 5 6 7 7 7 8 8 7 6 6 7 8 8 9 9 7 7 7 7 8 7 5 6 6 7 7 7 8 8 8 9 8 10 10 11 10 10 10 10 10 10 10 9 10 11 10 11 10 10 10 10 10
3 1 3 4 2 5 5 2 2 3 2 1 1 5 1 3 3 2 2 2 2 4 4 2 2 1 3 3 1 1 4 5 6 6 5 8 6 4 6 7 6 5 7 8 8 8 10 10 9 7 7 7 7 8 6 6 5 6 7 7 7 7 7 8 8 9 9 10 9 10 11 11 10 10 9 9 9 10 10 11 10 11 10 10 11 10
1 2 1 1 1 5 4 4 4 3 3 3 2 3 2 3 0 4 3 3 2 2 2 1 5 3 4 2 1 2 4 6 5 7 7 8 7 4 7 8 6 5 7 8 8 8 9 9 9 8 7 7 7 7 7 7 6 6 7 6 7 8 8 8 9 10 10 10 10 10 10 10 11 11 11 10 11 12 11 10 10 10 11 11 10 10
1 1 3 1 1 2 2 2 1 4 2 4 1 3 4 1 1 1 2 1 1 1 0 1 4 5 5 2 2 2 4 5 4 5 5 6 6 6 7 7 5 6 8 9 8 8 8 7 8 8 7 7 7 7 7 8 6 5 5 5 6 7 8 8 9 10 10 10 10 10 10 10 10 10 10 10 11 10 10 10 10 10 10 10 10 10
2 1 2 1 1 1 0 1 2 3 3 6 5 3 3 0 1 1 1 2 4 3 4 2 4 5 3 2 3 3 4 3 2 1 3 5 7 7 7 7 6 7 8 8 9 8 8 8 9 9 9 9 8 6 6 6 5 5 5 4 5 6 7 8 8 9 8 9 8 7 10 11 10 9 9 9 10 10 10 11 11 11 11 11 10 10
1 1 2 2 1 2 1 1 0 2 4 3 1 2 1 2 1 2 2 1 1 3 4 0 2 1 4 1 2 1 2 2 3 3 5 7 8 8 8 8 8 8 9 9 9 8 8 9 10 9 8 9 9 8 7 7 5 6 5 5 6 7 8 9 10 9 10 9 9 10 10 10 10 10 10 10 10 10 10 11 11 11 11 11 10 9
0 1 2 3 2 2 1 4 2 3 3 0 0 2 1 2 1 1 1 0 1 2 1 3 4 2 3 1 3 2 1 1 3 5 5 6 8 8 7 7 8 10 9 9 8 8 9 9 9 9 8 7 7 6 5 5 5 5 4 6 7 8 9 9 9 9 9 9 9 11 11 11 11 11 10 11 11 11 10 10 10 10 10 10 10 9
0 0 2 1 1 1 2 2 2 3 3 1 2 2 2 0 0 1 1 2 2 1 1 1 5 4 2 1 3 2 1 2 2 4 6 7 9 9 9 10 10 9 10 10 9 9 9 9 9 9 8 6 6 6 7 6 5 5 5 6 6 7 8 9 9 9 9 9 9 11 11 11 10 9 10 11 11 10 10 10 10 10 10 10 10 9
2 0 1 2 2 2 2 3 0 1 1 2 3 0 1 0 2 1 3 1 1 1 2 1 2 3 2 1 1 3 3 4 4 4 7 8 9 10 9 10 10 10 10 10 9 9 8 8 8 7 8 7 7 6 6 5 4 5 5 6 6 8 9 9 9 9 9 9 10 11 11 10 10 10 11 12 10 10 10 10 10 9 10 10 10 9
3 0 2 1 2 2 2 1 1 1 1 1 0 0 1 1 1 2 2 1 1 2 2 2 3 3 3 2 2 3 4 4 4 5 8 9 10 10 10 10 11 10 10 10 8 7 6 6 6 5 6 6 6 6 6 5 5 5 5 5 7 9 10 9 9 9 9 10 10 11 10 10 10 11 11 11 9 10 11 10 10 9 10 10 9 10
1 2 0 3 0 2 1 1 1 1 1 1 1 2 1 2 4 2 3 0 2 6 2 2 4 2 3 1 3 2 4 6 7 6 6 8 9 8 9 9 8 9 9 9 9 9 8 7 7 7 6 6 6 6 5 5 5 5 6 6 7 8 9 8 8 9 10 10 11 10 10 11 11 11 11 11 10 11 11 10 10 9 10 10 10 11
1 1 0 1 2 3 3 4 3 1 1 1 0 1 3 5 5 2 1 1 3 2 3 2 5 6 3 5 4 6 6 7 7 7 5 5 7 7 8 8 9 8 8 9 10 9 9 8 6 6 7 6 6 5 5 5 5 5 6 7 7 8 9 9 8 9 10 9 10 10 10 11 11 11 11 11 10 11 11 10 10 10 9 10 11 11
2 2 1 1 2 3 2 2 2 2 0 3 3 5 6 5 3 1 1 2 4 4 6 10 7 13 15 13 8 9 9 9 10 10 10 10 10 9 8 8 8 8 9 9 8 7 7 7 8 7 7 6 5 4 4 4 5 5 6 8 7 7 8 8 9 10 10 9 10 9 10 11 11 10 10 10 10 10 10 10 10 10 10 10 10 10
1 1 2 4 5 6 2 4 2 2 6 6 6 6 7 8 8 8 7 4 7 4 6 4 4 4 12 11 10 11 12 11 9 10 11 10 9 9 9 10 10 9 9 8 7 8 8 8 7 7 7 7 5 4 4 4 4 6 6 7 7 8 8 7 9 10 10 9 9 9 10 10 10 10 10 10 10 10 10 10 10 10 10 10 11 10
1 1 2 3 5 5 7 8 5 3 8 7 5 6 7 10 10 12 12 7 9 5 7 3 4 7 15 13 13 13 11 12 12 11 10 10 10 9 9 9 10 10 9 8 8 8 8 8 7 7 7 6 5 5 5 5 5 6 7 7 8 8 8 9 9 9 9 9 9 10 10 10 9 9 10 10 10 10 10 10 10 10 10 10 10 9
1 0 2 2 4 7 8 4 2 7 4 4 10 11 11 10 13 15 12 9 11 13 13 13 14 18 18 17 14 13 11 11 11 7 7 8 8 8 8 9 9 9 9 9 9 8 7 7 7 7 6 5 5 5 5 5 6 7 7 8 8 8 8 9 8 9 9 8 9 10 10 10 9 10 10 10 10 10 11 10 11 11 11 11 10 10
1 0 2 3 1 2 0 2 2 4 3 7 8 9 9 10 10 13 11 11 8 13 17 16 15 17 16 10 9 9 7 7 8 8 8 7 6 7 9 9 9 9 9 9 9 9 8 7 7 6 6 4 4 5 5 5 6 6 7 8 8 8 8 8 8 8 8 8 9 9 10 10 9 10 10 10 10 10 11 11 10 10 11 11 11 11
1 1 2 1 3 1 1 2 3 3 5 8 13 7 8 8 7 8 10 10 10 11 3 3 6 9 10 2 3 4 6 8 9 8 8 7 6 8 9 9 9 9 9 9 9 9 8 8 7 7 5 4 4 4 5 6 6 7 8 8 8 8 8 8 7 7 8 8 8 9 10 9 10 10 10 10 10 11 10 10 11 11 11 11 12 11
1 1 1 0 2 1 1 3 7 4 3 3 4 5 12 10 6 3 8 6 12 7 4 5 7 3 6 4 9 8 3 8 11 6 6 9 10 10 9 8 8 9 9 9 9 9 8 7 6 5 4 3 3 4 5 5 6 7 8 8 8 7 7 7 7 7 7 8 8 9 9 10 10 11 10 10 10 10 10 11 11 11 12 12 11 11
1 1 0 1 1 1 5 9 2 1 1 0 2 2 8 8 12 8 6 11 13 12 8 5 8 6 8 9 10 12 9 8 9 9 5 6 8 9 9 8 8 8 8 9 8 8 7 5 3 2 1 2 2 2 4 3 5 6 7 7 7 6 7 6 6 6 7 8 8 9 9 10 11 11 10 10 10 10 11 11 11 11 11 11 11 11
2 1 1 1 1 2 4 7 1 1 3 2 1 1 3 3 8 13 11 8 8 14 15 14 15 12 12 9 9 11 9 8 8 9 10 8 7 8 9 9 8 8 9 8 9 7 6 4 3 2 1 2 2 3 4 4 5 7 6 6 6 6 6 6 6 6 7 7 8 8 9 10 10 11 11 11 10 10 10 11 11 11 10 10 11 11
3 2 2 0 1 1 0 2 1 1 2 3 0 2 2 3 3 2 10 16 16 15 15 15 15 14 10 9 9 8 5 7 9 8 9 8 6 6 6 6 8 8 8 7 8 7 6 4 2 2 2 2 2 3 3 5 6 7 7 6 6 6 5 6 6 6 7 8 8 9 10 10 10 10 11 11 11 11 11 11 11 12 11 11 10 9
3 3 1 0 0 1 0 1 6 8 8 4 2 4 6 3 6 3 4 5 6 9 12 12 13 11 10 9 9 7 6 5 8 5 6 5 4 5 6 6 6 8 7 7 5 5 2 0 1 1 1 1 2 3 4 5 6 6 6 6 5 5 5 5 6 7 8 8 8 9 9 10 10 10 11 11 11 11 11 11 12 11 10 11 11 11
2 2 1 1 0 0 1 3 2 2 2 1 3 3 2 3 1 2 3 8 3 6 10 11 10 9 9 8 4 4 3 8 8 3 5 3 4 3 4 5 6 6 6 6 3 1 2 2 2 2 1 1 1 2 3 5 6 6 6 5 5 5 5 5 6 7 8 8 9 9 9 9 9 10 10 10 11 11 10 10 10 10 11 12 13 13
3 3 1 1 1 1 1 1 1 1 3 2 2 3 3 1 2 1 0 5 0 5 9 10 10 9 8 8 2 3 4 6 8 6 2 1 2 2 5 6 4 4 4 3 3 3 3 2 1 1 1 1 1 3 3 5 5 5 5 5 5 5 5 6 7 7 8 9 9 9 9 8 9 9 10 10 10 10 11 11 11 11 11 10 11 12
4 2 1 0 0 1 1 1 3 4 4 1 4 3 3 3 3 1 3 1 5 5 7 7 9 8 6 5 2 3 4 8 9 7 2 1 3 4 5 6 6 5 3 2 2 1 2 2 3 2 0 1 2 2 4 5 5 5 4 5 4 5 6 7 7 7 7 8 8 8 8 8 9 9 9 10 11 10 11 11 10 11 11 11 10 10
0 0 1 3 0 1 3 3 4 6 4 2 6 6 5 4 2 1 3 2 2 4 6 7 8 8 5 5 4 7 7 8 11 10 7 7 7 6 3 4 5 4 4 2 3 4 2 2 1 0 1 1 1 2 3 4 4 4 4 5 4 5 6 6 6 7 7 7 8 8 8 8 8 10 10 9 10 11 11 10 10 11 11 11 10 10
1 1 0 1 2 2 2 3 3 7 5 5 3 7 4 3 1 3 1 1 3 3 4 7 8 7 5 8 7 8 10 8 8 7 9 9 8 8 6 5 3 2 1 1 3 4 3 2 2 2 2 1 1 1 3 4 5 4 4 4 5 6 6 6 7 7 7 7 7 8 8 8 8 9 9 10 10 10 10 10 9 9 10 8 9 11
5 6 3 3 2 3 2 1 4 3 1 6 13 6 2 2 3 2 1 3 5 3 3 5 7 7 5 8 9 10 10 10 9 10 10 9 8 8 6 4 5 5 4 5 5 4 3 3 2 2 1 1 0 1 2 3 4 4 4 3 5 6 6 6 6 7 7 7 7 8 8 8 9 9 8 9 10 10 10 9 9 10 9 9 9 10
6 2 1 2 6 3 4 5 4 1 4 11 12 3 8 10 1 3 0 6 4 4 4 5 5 7 7 8 10 10 9 9 10 9 9 8 7 6 5 5 5 4 4 4 4 4 4 3 2 2 2 1 0 1 2 3 3 4 5 4 5 5 5 6 6 7 7 6 7 7 8 9 9 8 8 9 10 9 9 9 9 9 8 8 9 8
11 5 3 1 6 7 7 9 4 2 6 13 12 6 5 8 4 3 2 4 5 5 3 4 9 5 6 8 9 9 10 8 10 8 8 9 8 7 6 6 4 5 5 6 5 5 4 3 3 3 2 1 1 0 1 2 2 4 5 4 5 5 6 6 7 7 7 7 7 8 8 9 8 8 8 8 8 10 10 11 9 8 8 9 9 9
2 1 1 2 6 7 14 15 7 3 5 9 10 8 7 5 5 3 5 7 6 8 5 8 9 9 7 5 7 8 8 9 9 9 8 8 7 7 5 4 3 3 4 4 4 5 4 3 3 3 2 2 2 1 0 1 2 3 4 4 4 5 5 6 7 7 8 8 7 8 9 9 8 6 7 7 7 7 7 9 10 9 8 8 9 9
5 5 4 5 1 3 7 3 7 14 10 7 11 11 11 10 10 6 7 9 11 9 8 7 8 9 9 6 8 10 10 8 8 9 8 7 7 7 5 5 4 5 6 7 6 6 5 5 3 3 2 2 3 2 1 1 2 3 4 4 4 5 6 6 6 7 7 7 7 6 7 8 6 7 6 6 6 5 5 5 7 8 7 6 9 10
2 6 3 8 3 6 12 2 5 3 5 7 7 7 9 10 10 10 9 9 9 8 7 8 4 8 6 8 9 9 10 8 8 9 7 6 7 5 5 5 4 5 5 4 6 6 4 4 3 3 3 3 2 2 1 1 2 2 3 3 3 5 5 5 6 6 7 8 7 6 6 6 7 7 5 6 7 7 7 6 5 6 7 6 8 9
2 6 5 4 6 9 13 17 20 15 12 17 14 11 11 8 7 7 7 8 7 9 9 8 7 9 7 10 8 7 9 9 9 9 9 7 6 6 5 4 5 5 6 6 6 6 5 5 4 3 3 3 2 2 1 2 2 2 3 2 3 4 4 6 7 6 6 6 5 5 6 6 6 5 5 6 6 6 6 7 8 7 7 7 6 7
5 9 4 2 5 8 10 11 3 3 4 3 7 9 7 6 6 7 4 4 6 8 8 8 7 8 9 9 9 8 10 9 9 7 8 7 7 7 5 4 4 5 6 5 5 5 3 3 4 4 3 3 2 2 2 2 2 2 2 2 2 3 3 5 6 6 5 4 5 5 6 6 6 6 6 5 6 7 7 8 12 10 8 9 11 15
13 12 9 9 4 9 10 12 9 7 8 11 9 2 3 3 4 6 8 8 7 8 8 7 9 6 7 9 8 9 10 10 10 6 7 6 7 5 5 5 5 5 6 7 6 5 5 5 4 3 3 3 3 2 2 2 2 2 2 1 3 3 3 4 5 5 4 4 4 6 7 6 6 6 6 6 7 7 8 7 4 10 11 10 14 15
Wind_Direction
306 68 40 38 18 349 344 350 340 28 41 102 93 95 80 102 97 111 47 358 330 345 52 58 85 89 80 52 42 45 142 93 79 68 57 42 34 34 33 34 30 31 24 353 3 22 17 20 14 349 336 342 348 12 359 354 359 360 353 336 347 344 349 339 338 340 337 339 334 332 332 329 329 328 325 323 328 327 323 321 319 318 316 318 317 316
265 72 37 18 337 324 321 330 149 143 26 64 111 122 98 39 100 58 10 354 60 285 92 39 91 76 70 57 49 56 122 69 53 55 51 41 39 40 27 24 22 11 2 6 22 20 28 19 14 0 1 4 356 353 348 356 349 348 346 348 341 341 346 345 342 332 331 343 338 324 323 322 317 323 322 322 320 319 315 316 318 317 319 320 319 317
52 59 27 359 332 248 314 162 266 117 125 177 267 129 129 81 90 110 55 16 19 271 94 256 130 86 69 48 60 49 42 63 14 359 3 4 30 29 21 10 8 1 356 353 0 1 1 0 355 352 346 348 331 318 324 348 342 348 346 348 342 342 338 338 340 335 338 329 324 310 313 309 312 305 310 310 311 311 316 319 319 318 318 320 318 319
73 50 9 13 256 237 112 71 127 87 69 59 170 216 70 78 267 130 61 23 34 4 128 189 180 119 124 137 87 45 7 5 318 291 299 306 349 0 357 355 337 334 339 339 340 340 344 343 338 339 333 335 319 321 337 349 343 339 335 340 339 332 330 327 342 330 322 313 305 295 294 298 299 313 314 311 313 319 320 318 318 317 320 318 316 319
78 45 355 307 347 343 87 59 31 232 79 52 33 50 111 141 40 342 84 13 74 74 67 187 218 185 180 180 162 133 159 236 227 237 227 211 251 288 271 266 294 321 327 325 327 333 335 334 331 326 319 312 316 326 340 340 333 321 319 322 322 317 318 316 329 329 321 318 320 327 323 322 322 317 318 319 318 322 317 313 318 319 318 316 315 315
65 27 320 312 59 359 260 56 27 327 125 108 59 16 8 36 356 11 309 235 186 133 68 306 258 170 157 191 212 147 199 188 160 252 182 280 0 323 337 337 322 293 276 293 317 319 317 313 316 318 321 321 323 326 334 323 309 308 309 314 317 311 307 320 328 338 327 328 328 336 334 330 327 322 325 325 324 321 320 318 315 313 316 315 314 313
58 15 352 339 63 80 87 80 14 318 315 310 56 347 34 338 306 253 196 233 249 350 71 282 330 346 148 209 198 185 222 231 195 234 229 237 252 287 298 305 319 324 327 325 321 320 318 320 318 317 321 322 319 326 326 314 307 305 304 310 308 310 317 331 333 344 340 334 337 337 330 325 323 321 318 318 314 313 312 311 311 312 313 313 311 310
341 24 39 118 283 323 34 40 28 358 306 61 68 312 285 236 233 205 198 251 52 111 159 255 1 299 271 148 153 158 253 237 239 229 230 234 253 286 297 299 305 317 319 320 324 322 320 315 312 312 316 318 326 322 316 314 313 317 322 320 317 318 319 334 341 345 350 338 338 330 328 326 324 322 315 317 314 310 308 310 311 313 311 311 308 309
28 20 17 17 0 31 40 14 340 332 342 49 40 288 92 205 144 151 201 162 75 278 207 113 4 252 252 104 140 193 250 241 243 233 226 231 245 266 303 321 314 309 310 308 312 316 315 314 314 316 315 317 316 320 317 315 316 318 321 319 318 318 322 342 351 345 345 343 335 329 328 326 321 317 314 313 310 311 313 310 313 311 310 308 309 307
87 52 11 313 15 21 333 347 326 337 343 96 84 103 89 104 106 283 178 160 147 274 290 43 3 322 348 125 173 206 256 266 262 233 222 225 238 261 288 310 319 325 325 315 306 301 302 305 304 304 298 302 316 310 308 305 306 315 320 321 323 328 333 342 341 342 338 339 336 331 330 325 321 321 317 315 314 314 317 313 313 313 311 313 310 310
113 66 334 356 31 328 299 331 329 267 6 76 187 205 144 155 113 112 40 190 199 234 95 67 33 12 302 121 167 183 319 351 357 205 217 229 245 251 258 275 293 307 317 313 313 310 307 306 297 293 302 315 324 320 308 309 312 315 322 325 323 330 328 333 336 335 334 336 336 332 330 326 322 322 318 317 316 317 318 316 315 315 314 311 309 312
123 161 161 73 229 314 216 192 94 242 269 179 168 235 167 169 170 190 132 254 275 21 108 63 14 352 286 78 152 229 69 267 277 284 233 232 243 258 274 287 291 296 301 303 307 314 318 316 317 321 321 328 326 326 332 329 328 324 325 325 321 323 333 330 332 333 337 337 336 334 330 327 325 322 320 318 316 319 317 315 315 315 313 311 311 311
67 47 323 277 170 353 2 277 152 195 189 201 211 203 250 61 225 189 149 279 8 340 104 88 355 264 236 355 49 80 256 234 236 276 277 266 266 268 275 282 294 300 301 308 314 315 316 316 316 318 320 323 325 326 326 327 327 324 324 325 320 323 334 333 334 336 338 339 338 337 331 328 325 321 320 316 315 317 316 317 315 317 313 314 313 315
123 242 23 24 193 21 341 358 12 155 11 358 355 334 318 3 29 355 6 205 269 129 89 167 28 252 301 123 103 55 7 281 256 249 271 270 271 279 285 296 303 304 307 309 309 305 305 310 312 312 312 314 314 317 319 320 321 320 315 321 320 321 330 335 336 338 338 339 338 335 332 328 325 322 319 318 315 316 315 314 314 313 313 313 312 314
239 144 49 349 39 344 27 37 2 331 326 30 270 328 34 52 18 343 318 333 346 305 332 116 267 32 329 89 114 347 322 303 275 275 273 270 270 276 286 288 282 278 319 320 312 309 309 311 316 311 309 307 308 311 313 316 317 319 316 323 323 320 331 337 340 340 340 337 334 332 330 326 324 321 319 316 316 315 315 314 312 311 312 310 312 312
32 353 67 24 326 323 30 9 300 321 251 222 319 256 330 50 314 314 21 303 334 325 301 148 300 344 301 89 304 281 277 259 254 258 256 267 255 260 279 273 276 302 332 325 315 316 318 321 320 315 311 310 310 311 310 313 320 319 319 318 316 318 328 336 340 340 335 329 327 326 324 323 320 317 315 313 315 314 313 312 311 311 312 313 310 310
213 110 30 66 88 33 27 343 29 303 2 15 253 41 49 346 264 110 126 99 197 211 226 358 272 191 211 144 260 274 248 259 240 260 258 268 273 264 269 274 279 303 327 318 314 313 313 315 315 313 308 307 311 312 313 315 316 314 313 313 317 325 331 338 340 335 328 325 323 324 322 322 320 318 316 315 313 313 313 311 312 312 313 311 311 313
317 25 93 276 153 80 344 306 347 12 290 275 35 77 94 72 337 313 330 182 214 282 61 101 319 323 328 62 168 208 238 235 252 255 279 280 275 277 278 281 290 301 314 307 303 305 305 303 303 307 305 307 307 308 309 313 321 313 307 308 315 325 332 337 334 330 327 325 323 321 321 320 319 317 316 315 314 315 313 314 314 315 314 315 314 312
311 238 133 60 323 68 172 240 232 105 12 30 73 113 272 31 272 109 235 5 341 322 312 289 289 241 266 358 161 203 233 248 214 232 281 319 325 321 311 305 295 310 314 315 315 313 317 318 319 316 314 316 317 316 308 308 312 311 309 317 320 328 336 335 329 325 322 325 323 320 320 320 320 319 317 316 315 315 314 317 317 316 315 313 315 314
242 302 121 155 225 348 297 285 25 21 91 60 234 126 20 278 48 323 52 263 232 291 326 22 359 46 195 348 235 238 265 257 248 281 327 326 319 315 311 308 309 310 309 306 306 307 309 314 314 315 316 318 321 320 320 320 322 320 323 321 334 338 337 332 330 328 325 328 324 320 319 320 321 321 320 320 321 319 319 319 319 317 317 317 315 315
31 310 334 105 260 258 193 8 56 8 352 29 199 59 126 58 281 142 78 349 282 285 267 316 325 23 82 197 223 251 320 289 286 294 304 304 308 307 298 296 300 305 302 300 301 305 309 310 311 313 316 316 312 306 301 305 318 316 313 328 342 337 330 329 328 327 326 326 323 322 321 322 323 322 322 322 323 321 322 322 319 320 319 315 314 318
300 193 311 341 205 86 58 32 4 348 342 335 334 48 22 251 159 280 220 100 2 266 226 249 288 299 7 100 251 309 54 314 281 269 282 289 300 303 302 301 304 302 301 301 303 305 305 306 308 312 315 313 311 311 318 325 318 321 333 342 338 333 331 330 328 329 326 323 319 320 321 322 322 322 323 324 325 324 325 323 322 323 321 315 316 317
346 24 315 296 48 38 40 70 250 318 254 322 306 63 342 333 279 292 312 146 210 113 346 13 294 282 78 91 267 266 277 272 267 264 272 286 295 297 297 298 298 295 291 293 297 300 299 298 301 304 302 300 300 303 310 320 326 332 340 342 338 330 330 330 326 327 325 322 320 322 322 323 324 326 327 328 326 327 327 325 324 324 319 317 316 316
197 9 295 144 86 61 170 156 203 308 281 242 179 74 235 262 342 306 313 68 233 110 211 208 245 245 116 133 241 250 264 276 261 240 269 289 296 296 296 295 297 299 300 299 296 291 290 289 289 290 305 315 321 325 331 330 331 341 348 345 334 331 331 330 330 326 324 320 320 322 324 326 326 328 331 330 328 327 328 327 324 323 321 319 317 318
208 114 59 307 242 158 184 181 200 347 252 248 263 125 331 88 73 120 108 19 264 201 223 189 272 312 103 210 200 247 261 266 276 262 226 276 293 296 299 298 295 296 296 300 307 310 309 311 322 324 321 321 325 328 331 333 338 347 345 339 335 328 329 329 328 325 323 322 323 326 328 328 329 330 331 329 327 326 327 327 324 323 320 319 318 317
217 147 199 350 351 341 337 328 338 327 186 159 277 153 195 168 143 179 200 141 259 111 152 222 250 268 130 186 219 254 263 287 301 316 306 249 270 290 296 298 301 304 301 307 310 314 318 318 311 313 321 321 327 329 329 333 343 346 340 335 335 327 330 330 327 324 323 326 327 328 331 332 330 330 329 328 327 327 327 326 325 323 319 319 316 315
134 90 158 176 271 296 336 352 36 72 156 234 174 220 192 207 218 311 47 193 240 145 206 229 243 294 295 296 307 313 312 315 319 322 322 321 314 309 305 305 306 304 300 300 302 299 299 307 317 319 319 324 325 331 329 338 345 343 333 331 335 333 330 329 327 325 328 331 330 330 335 334 332 327 326 328 326 324 325 325 324 323 320 319 315 314
99 188 139 150 234 245 306 237 194 225 253 258 239 231 202 182 192 195 204 230 126 124 260 218 239 246 277 295 305 306 307 310 312 314 316 314 311 308 304 300 295 294 298 304 306 313 316 315 316 321 325 326 331 330 340 352 352 339 334 333 337 336 334 333 328 329 332 334 332 335 335 332 329 328 326 324 323 324 323 323 324 322 319 318 318 315
252 223 156 150 241 246 245 245 180 226 239 255 237 235 211 197 182 208 225 212 162 226 255 107 184 262 279 288 292 296 300 305 306 304 302 299 291 288 292 295 298 299 304 309 315 319 320 318 316 316 321 323 325 335 345 347 344 339 337 338 338 335 336 332 328 331 335 335 335 335 333 330 327 325 325 324 325 326 327 325 322 321 319 318 317 315
285 248 150 217 264 268 274 276 187 218 244 254 242 232 234 202 208 216 231 213 207 241 260 283 290 282 281 280 281 288 300 297 297 298 286 281 288 298 296 296 297 302 307 312 316 318 317 313 312 313 317 321 332 343 348 347 342 341 338 337 334 334 336 333 333 334 335 335 336 333 332 328 326 325 324 326 326 329 328 326 324 321 320 320 317 316
303 267 129 176 271 272 342 61 149 214 220 269 246 232 226 226 230 228 242 246 238 266 267 272 276 280 274 264 268 281 288 290 282 280 288 293 293 296 298 297 299 303 311 315 321 321 318 313 314 317 323 334 350 354 353 346 337 336 337 336 332 334 337 335 334 334 335 334 336 334 331 329 326 325 324 326 325 328 328 325 322 320 321 321 320 318
310 247 56 232 312 352 279 191 213 197 248 266 288 260 213 190 207 224 219 220 193 226 223 242 257 254 267 285 278 242 265 281 289 299 311 309 309 301 296 298 301 308 314 317 318 317 316 315 317 323 327 341 359 359 356 345 338 337 336 333 334 333 332 334 332 334 336 339 336 335 334 330 325 323 324 326 328 328 326 323 322 321 321 321 321 321
308 175 208 305 303 266 249 240 304 278 240 273 255 229 183 195 202 257 243 229 217 197 194 228 245 244 307 313 307 296 280 304 306 315 319 313 309 305 295 292 295 300 310 313 311 310 310 311 313 315 323 347 5 360 354 341 334 336 330 329 330 328 330 332 336 337 339 339 338 332 328 327 327 324 324 329 329 327 325 325 324 324 324 323 322 319
324 272 261 264 274 272 308 308 248 243 287 192 82 131 151 185 191 211 231 215 213 196 222 229 273 320 302 298 294 300 308 303 302 302 291 270 285 290 288 285 290 298 306 308 308 303 302 308 313 322 2 23 17 6 336 331 334 326 324 325 325 332 333 333 335 339 340 340 339 333 328 326 325 324 326 328 328 328 327 326 326 324 322 320 321 321
166 71 117 313 262 294 324 299 252 325 247 87 131 78 28 33 181 210 252 265 214 215 241 270 270 268 264 267 277 280 284 295 292 287 293 271 243 255 269 284 291 303 308 306 306 307 311 314 307 313 20 26 11 353 339 347 344 329 328 332 328 335 333 335 338 342 342 336 337 336 333 328 326 325 326 327 327 327 326 327 325 325 325 324 323 322
165 138 155 96 321 244 236 47 30 232 324 215 99 108 88 70 92 296 265 248 240 215 218 237 252 259 266 275 282 279 298 299 288 256 242 260 232 238 259 277 300 307 303 301 300 302 310 317 324 352 15 32 14 348 355 348 338 330 328 329 329 330 331 336 341 345 343 338 337 335 332 329 326 325 327 327 326 328 329 328 328 326 326 324 320 321
176 100 230 224 246 271 113 233 263 314 319 85 99 165 185 185 172 191 301 299 197 206 197 224 245 255 262 263 262 287 313 296 288 290 170 231 230 214 237 274 293 294 290 289 291 297 321 329 63 59 46 50 17 352 356 345 334 327 324 327 330 326 331 341 350 347 341 335 334 332 332 329 326 326 326 327 326 329 330 329 328 327 332 325 325 325
9 300 296 269 310 208 213 291 302 339 334 267 89 41 120 348 79 359 32 284 183 192 194 207 233 245 258 260 250 290 304 304 298 296 149 201 219 231 214 238 262 262 263 277 282 240 188 147 125 109 73 39 23 11 351 338 332 326 321 326 327 330 342 351 352 345 337 335 334 331 329 325 324 323 324 324 326 326 325 324 323 327 334 332 330 330
31 55 13 274 161 173 170 220 227 202 247 65 129 136 124 120 109 86 241 268 256 180 198 206 226 241 246 265 242 116 286 292 289 304 76 162 204 208 286 291 279 268 268 272 277 252 189 161 149 139 116 52 5 5 349 333 328 322 321 328 327 333 346 353 348 341 336 333 330 327 323 323 323 322 323 323 323 324 325 326 327 326 327 323 324 326
26 359 320 118 168 233 107 185 253 200 239 74 150 150 146 133 137 218 302 23 155 198 205 198 229 241 241 243 221 218 248 286 298 324 78 251 255 259 260 285 292 288 269 202 199 194 148 150 175 191 147 12 7 352 340 337 327 322 320 326 322 341 352 348 337 330 326 324 323 322 322 321 321 323 323 322 322 324 325 323 321 326 326 325 325 319
268 7 3 239 227 191 222 293 301 275 245 186 159 129 126 159 186 315 298 2 186 204 196 198 235 239 243 253 196 267 232 241 280 302 328 313 305 293 227 224 257 268 274 228 181 158 188 170 166 172 86 46 11 346 346 337 328 327 332 323 332 349 347 335 328 326 325 322 321 321 322 322 323 324 322 322 322 322 317 317 318 324 321 320 322 321
220 125 91 46 203 199 205 236 263 276 258 131 52 126 150 159 228 268 3 152 166 216 197 207 234 240 231 240 243 244 266 271 282 296 291 288 285 285 283 275 245 197 170 180 158 185 194 175 158 147 142 82 18 357 351 344 327 323 330 324 345 342 333 326 330 327 326 325 325 323 321 320 323 327 323 327 321 316 317 320 314 311 312 310 310 310
177 164 187 190 145 66 60 278 321 305 68 125 128 106 259 195 251 87 157 204 198 288 206 222 222 252 218 257 247 255 267 278 277 279 280 284 285 285 286 271 249 232 196 182 196 193 195 199 192 174 171 155 37 356 3 343 326 326 321 325 342 332 329 329 327 330 327 325 321 321 320 320 323 321 325 324 317 312 312 317 315 315 308 306 309 308
155 241 184 229 190 145 180 187 208 227 110 170 164 182 186 221 131 135 17 298 151 198 266 275 235 219 239 244 266 276 269 271 278 272 278 274 264 265 258 255 250 234 208 203 204 172 171 196 178 179 177 189 174 20 19 348 330 331 316 332 339 325 326 329 332 328 324 320 319 322 322 325 324 324 324 324 322 316 310 314 314 309 313 316 313 312
186 217 184 235 182 187 201 215 228 261 184 189 222 229 178 222 269 289 287 256 291 276 180 259 276 263 222 250 265 266 282 266 266 273 274 280 286 283 279 272 261 232 201 191 187 158 172 198 191 184 187 189 171 3 28 351 321 305 301 333 331 331 332 334 334 328 323 321 320 325 323 319 322 328 322 321 327 329 336 328 330 325 333 325 320 320
333 252 92 277 227 255 275 251 241 232 193 228 251 269 271 259 233 217 239 275 240 245 245 263 275 279 278 247 270 272 253 269 280 278 270 269 272 275 265 260 220 210 192 168 156 165 174 157 161 181 205 205 190 222 47 351 296 284 301 327 325 332 336 332 327 325 325 326 319 325 322 317 318 308 317 322 332 327 320 325 328 325 323 321 331 327
213 154 188 239 300 13 276 77 201 233 244 224 229 239 247 249 254 226 249 240 256 263 266 248 251 266 268 271 252 262 272 275 274 272 268 272 269 264 258 252 222 196 194 197 180 152 172 178 184 189 197 238 196 196 191 256 271 279 305 307 326 335 332 323 318 313 320 326 321 312 326 331 327 328 322 323 312 310 304 307 326 320 308 313 335 331
260 159 205 229 222 212 249 153 229 170 239 239 232 249 244 241 234 233 225 243 256 264 256 263 256 259 248 254 246 251 262 263 263 267 268 262 264 265 256 240 215 197 204 186 152 170 171 182 200 180 199 234 205 184 197 245 256 275 283 296 326 330 324 315 323 317 323 327 321 318 324 321 316 316 325 330 333 324 323 322 314 310 307 309 326 323
112 127 234 169 210 254 287 280 275 281 252 249 249 234 243 250 253 250 226 233 245 258 261 248 219 243 239 248 253 254 263 258 246 254 264 268 265 255 243 233 207 203 177 177 172 173 196 184 184 185 196 231 197 183 210 235 255 257 272 299 328 329 325 329 321 311 309 309 318 320 322 311 315 321 319 330 336 321 301 315 319 305 296 284 274 295
119 229 176 86 259 251 236 256 143 284 294 244 203 220 216 223 221 241 242 227 228 241 247 258 236 212 236 245 252 250 253 262 256 248 252 252 256 258 244 215 193 185 179 171 150 179 176 165 173 179 199 223 192 194 217 239 242 253 277 292 330 333 334 329 322 312 311 326 325 327 327 326 322 326 324 321 325 330 299 260 262 281 305 311 308 304
195 211 160 207 202 248 243 242 233 237 271 265 289 113 207 182 176 214 226 233 234 229 238 253 274 253 223 237 228 236 245 249 256 245 249 249 250 242 243 209 186 185 180 162 155 179 190 182 171 182 203 220 191 200 213 238 249 256 275 298 338 338 336 330 322 309 316 327 334 333 331 324 327 328 323 321 320 316 315 316 283 263 269 282 303 311